Location: Bakov nad Jizerou
(50.4784°N, 14.9394°E)
Time: 09:32:39
(UTC+00:00)

Meteor 1-16 Rocket - Pass Details

Date: 16 June 2021
Orbit: 790 x 907 km, 81.2° (Epoch: 04 August)

Event Time Altitude Azimuth Distance (km) Brightness Sun altitude
Rises 20:05:18 0° 348° (NNW) 3,415 8.6 -6.6°
Reaches altitude 10° 20:07:46 10° 350° (N) 2,457 7.7 -6.8°
Maximum altitude 20:13:19 74° 76° (ENE) 853 4.2 -7.4°
Drops below altitude 10° 20:18:40 10° 162° (SSE) 2,374 5.9 -7.9°
Enters shadow 20:19:06 - 162° (SSE) 2,536 6.1 -7.9°
